Datetime-UTC, Datetime-J2000, North, East, Up
2024/03/22 00:00:00, 764337600.00, 0.000000, 0.000000, 0.000000
2024/03/22 00:05:00, 764337900.00, 0.012600, -0.002700, 0.004100
2024/03/22 00:10:00, 764338200.00, -0.000700, -0.003100, 0.002800
2024/03/22 00:15:00, 764338500.00, 0.003900, 0.000700, -0.000200
2024/03/22 00:20:00, 764338800.00, -0.006300, 0.012600, 0.030000
2024/03/22 00:25:00, 764339100.00, 0.003600, 0.005400, -0.000300
2024/03/22 00:30:00, 764339400.00, 0.003400, 0.011100, -0.006700
2024/03/22 00:35:00, 764339700.00, 0.003600, 0.010300, 0.012700
2024/03/22 00:40:00, 764340000.00, -0.002600, 0.002500, 0.021400
2024/03/22 00:45:00, 764340300.00, 0.003700, 0.006200, 0.011300
2024/03/22 00:50:00, 764340600.00, 0.006200, 0.012300, -0.005800
2024/03/22 00:55:00, 764340900.00, 0.015800, 0.008300, 0.017600
2024/03/22 01:00:00, 764341200.00, 0.004400, 0.021300, 0.001000
2024/03/22 01:05:00, 764341500.00, 0.001000, 0.016300, 0.000200
2024/03/22 01:10:00, 764341800.00, 0.006400, 0.006500, 0.010400
2024/03/22 01:15:00, 764342100.00, -0.004700, 0.011600, 0.025800
2024/03/22 01:20:00, 764342400.00, 0.016400, 0.010400, -0.009000
2024/03/22 01:25:00, 764342700.00, 0.005100, 0.013800, 0.016100
2024/03/22 01:30:00, 764343000.00, 0.008900, 0.014500, 0.005800
2024/03/22 01:35:00, 764343300.00, 0.015800, 0.023000, 0.006300
2024/03/22 03:00:00, 764348400.00, 0.010700, 0.040000, 0.001200
2024/03/22 03:05:00, 764348700.00, 0.015900, 0.037800, 0.006600
2024/03/22 03:10:00, 764349000.00, 0.024200, 0.044000, -0.013700
2024/03/22 03:15:00, 764349300.00, 0.013000, 0.037700, -0.004600
2024/03/22 03:20:00, 764349600.00, 0.009400, 0.041600, -0.020800
2024/03/22 03:25:00, 764349900.00, 0.021600, 0.032500, 0.008400
2024/03/22 03:30:00, 764350200.00, 0.016000, 0.043100, 0.000700
2024/03/22 03:35:00, 764350500.00, 0.016500, 0.042300, -0.017500
2024/03/22 03:40:00, 764350800.00, 0.014300, 0.040900, -0.005600
2024/03/22 05:00:00, 764355600.00, 0.027600, 0.029700, -0.023600
2024/03/22 05:05:00, 764355900.00, 0.027800, 0.019400, -0.001200
2024/03/22 05:10:00, 764356200.00, 0.031600, 0.024600, -0.009900
2024/03/22 05:15:00, 764356500.00, 0.026600, 0.029200, -0.007700
2024/03/22 05:20:00, 764356800.00, 0.029200, 0.016700, 0.005200
2024/03/22 05:25:00, 764357100.00, 0.017200, 0.026000, 0.002800
2024/03/22 05:30:00, 764357400.00, 0.021000, 0.038700, -0.024700
2024/03/22 05:35:00, 764357700.00, 0.003800, 0.038400, -0.023600
2024/03/22 05:40:00, 764358000.00, 0.003200, 0.039800, -0.004400
2024/03/22 05:45:00, 764358300.00, 0.009400, 0.037800, -0.022300
2024/03/22 05:50:00, 764358600.00, 0.003600, 0.037200, -0.024200
2024/03/22 05:55:00, 764358900.00, 0.015100, 0.038800, -0.026800
2024/03/22 06:00:00, 764359200.00, 0.013600, 0.039800, -0.050600
2024/03/22 06:05:00, 764359500.00, 0.009700, 0.039300, -0.028600
2024/03/22 06:10:00, 764359800.00, 0.020100, 0.036000, -0.024100
2024/03/22 06:15:00, 764360100.00, 0.022700, 0.040400, -0.026100
2024/03/22 06:20:00, 764360400.00, 0.030200, 0.036500, -0.013500
2024/03/22 06:25:00, 764360700.00, 0.023300, 0.033700, -0.002300
2024/03/22 06:30:00, 764361000.00, 0.034200, 0.035100, -0.024200
2024/03/22 06:35:00, 764361300.00, 0.028800, 0.034600, -0.028600
2024/03/22 06:40:00, 764361600.00, 0.023700, 0.035800, -0.029300
2024/03/22 06:45:00, 764361900.00, 0.039800, 0.036300, -0.049900
2024/03/22 06:50:00, 764362200.00, 0.039900, 0.043800, -0.051000
2024/03/22 06:55:00, 764362500.00, 0.035500, 0.038100, -0.049000
2024/03/22 07:00:00, 764362800.00, 0.036200, 0.032800, -0.042900
2024/03/22 07:05:00, 764363100.00, 0.037500, 0.036100, -0.045100
2024/03/22 07:10:00, 764363400.00, 0.024700, 0.028700, -0.012800
2024/03/22 07:15:00, 764363700.00, 0.034600, 0.032400, -0.081500
2024/03/22 07:20:00, 764364000.00, 0.031000, 0.028400, -0.031600
2024/03/22 07:25:00, 764364300.00, 0.027100, 0.028400, -0.032500
2024/03/22 07:30:00, 764364600.00, 0.023700, 0.024400, -0.028700
2024/03/22 07:35:00, 764364900.00, 0.025100, 0.032100, -0.031100
2024/03/22 07:40:00, 764365200.00, 0.019500, 0.024700, -0.020800
2024/03/22 07:45:00, 764365500.00, 0.018400, 0.018400, -0.066300
2024/03/22 07:50:00, 764365800.00, 0.024400, 0.021700, -0.027300
2024/03/22 07:55:00, 764366100.00, 0.044200, 0.021700, -0.011300
2024/03/22 08:00:00, 764366400.00, 0.027000, 0.021500, -0.026100
2024/03/22 08:05:00, 764366700.00, 0.017000, 0.033000, -0.042600
2024/03/22 08:10:00, 764367000.00, 0.038200, 0.029800, -0.019600
2024/03/22 08:15:00, 764367300.00, 0.038600, 0.023000, -0.010100
2024/03/22 08:20:00, 764367600.00, 0.036400, 0.019300, -0.022000
2024/03/22 08:25:00, 764367900.00, 0.017100, 0.023800, -0.026400
2024/03/22 08:30:00, 764368200.00, 0.037800, 0.025600, -0.023100
2024/03/22 08:35:00, 764368500.00, 0.022500, 0.021700, -0.029100
2024/03/22 08:40:00, 764368800.00, 0.031600, 0.028800, -0.016500
2024/03/22 08:45:00, 764369100.00, 0.045900, 0.024400, -0.030900
2024/03/22 08:50:00, 764369400.00, 0.025700, 0.028200, -0.033800
2024/03/22 08:55:00, 764369700.00, 0.016500, 0.033000, -0.031700
2024/03/22 09:00:00, 764370000.00, 0.037600, 0.029500, -0.036900
2024/03/22 09:05:00, 764370300.00, 0.041300, 0.021200, -0.022400
2024/03/22 09:10:00, 764370600.00, 0.020500, 0.035100, -0.032900
2024/03/22 09:15:00, 764370900.00, 0.025400, 0.019600, -0.019600
2024/03/22 09:20:00, 764371200.00, 0.032600, 0.035400, -0.041900
2024/03/22 09:25:00, 764371500.00, 0.032700, 0.024400, -0.013400
2024/03/22 09:30:00, 764371800.00, 0.038200, 0.023000, -0.041400
2024/03/22 09:35:00, 764372100.00, 0.027100, 0.024100, -0.071800
2024/03/22 10:15:00, 764374500.00, 0.008300, 0.023500, 0.057100
2024/03/22 15:55:00, 764394900.00, -0.000700, 0.058900, 0.012200
2024/03/22 18:35:00, 764404500.00, 0.036900, 0.044800, -0.013600
2024/03/22 18:40:00, 764404800.00, 0.020900, 0.055500, -0.015100
2024/03/22 18:45:00, 764405100.00, 0.021500, 0.051600, -0.026500
2024/03/22 18:50:00, 764405400.00, 0.021600, 0.052000, -0.022300
2024/03/22 18:55:00, 764405700.00, 0.021900, 0.049400, -0.018700
2024/03/22 19:00:00, 764406000.00, 0.021800, 0.062900, -0.025500
2024/03/22 19:05:00, 764406300.00, 0.028500, 0.041700, -0.013100
2024/03/22 19:10:00, 764406600.00, 0.027500, 0.050500, -0.027500
2024/03/22 19:15:00, 764406900.00, 0.024600, 0.061500, -0.011100
2024/03/22 19:20:00, 764407200.00, 0.022300, 0.048600, -0.021200
2024/03/22 19:30:00, 764407800.00, 0.043400, 0.052300, 0.008600
2024/03/22 19:35:00, 764408100.00, 0.046400, 0.054800, 0.019500
2024/03/22 19:40:00, 764408400.00, 0.038800, 0.051400, 0.015600
2024/03/22 19:45:00, 764408700.00, 0.040900, 0.046000, 0.008900
2024/03/22 21:10:00, 764413800.00, 0.007900, 0.042300, 0.013800
2024/03/22 21:15:00, 764414100.00, 0.014500, 0.053700, 0.008800
2024/03/22 21:20:00, 764414400.00, 0.038700, 0.047900, 0.050600
2024/03/22 21:25:00, 764414700.00, 0.013500, 0.042400, 0.012700
2024/03/22 21:30:00, 764415000.00, 0.015200, 0.053300, -0.016800
2024/03/22 21:35:00, 764415300.00, 0.024400, 0.034800, -0.059600
2024/03/22 21:40:00, 764415600.00, 0.030400, 0.039700, -0.038700
2024/03/22 21:45:00, 764415900.00, 0.019100, 0.033100, -0.034000
2024/03/22 21:50:00, 764416200.00, 0.027600, 0.041800, -0.048700
2024/03/22 21:55:00, 764416500.00, 0.026900, 0.041900, -0.034200
2024/03/22 22:00:00, 764416800.00, 0.020300, 0.039700, -0.036500
2024/03/22 22:05:00, 764417100.00, 0.022900, 0.044300, -0.056000
2024/03/22 22:10:00, 764417400.00, 0.023000, 0.034500, -0.015400
2024/03/22 22:15:00, 764417700.00, 0.008600, 0.025500, -0.020900
2024/03/22 22:20:00, 764418000.00, 0.023800, 0.029200, -0.015900
2024/03/22 22:25:00, 764418300.00, 0.009600, 0.026500, -0.026900
2024/03/22 22:30:00, 764418600.00, 0.016500, 0.020800, -0.015100
2024/03/22 22:35:00, 764418900.00, 0.028800, 0.025400, -0.016900
2024/03/22 22:40:00, 764419200.00, 0.015100, 0.008800, -0.005500
2024/03/22 22:45:00, 764419500.00, 0.005700, 0.007300, -0.001500
2024/03/22 22:50:00, 764419800.00, 0.002700, 0.020300, -0.039700
2024/03/22 22:55:00, 764420100.00, 0.010400, 0.014500, -0.015200
2024/03/22 23:00:00, 764420400.00, 0.006300, -0.000200, -0.004900
2024/03/22 23:05:00, 764420700.00, 0.017100, 0.011600, -0.005700
2024/03/22 23:10:00, 764421000.00, 0.024200, 0.008800, -0.005700
2024/03/22 23:15:00, 764421300.00, 0.020300, 0.020600, 0.021000
2024/03/22 23:20:00, 764421600.00, 0.003400, 0.027700, 0.000200
2024/03/22 23:25:00, 764421900.00, 0.020300, 0.017300, -0.011500
2024/03/22 23:30:00, 764422200.00, 0.013800, 0.008200, -0.035400
2024/03/22 23:40:00, 764422800.00, 0.030900, 0.006000, -0.005600
2024/03/22 23:45:00, 764423100.00, 0.027400, 0.001000, -0.063500
2024/03/22 23:50:00, 764423400.00, 0.012900, 0.015000, -0.039700
2024/03/22 23:55:00, 764423700.00, 0.029400, 0.010100, -0.031600
2024/03/23 00:00:00, 764424000.00, 0.002400, 0.028700, -0.032600
2024/03/23 00:05:00, 764424300.00, 0.003000, 0.022400, -0.002700
2024/03/23 00:10:00, 764424600.00, 0.005900, 0.036200, -0.002800
2024/03/23 00:15:00, 764424900.00, 0.010300, 0.031600, 0.001500
2024/03/23 00:20:00, 764425200.00, 0.004600, 0.031200, 0.000600
2024/03/23 00:25:00, 764425500.00, 0.003000, 0.029600, 0.008800
2024/03/23 00:30:00, 764425800.00, 0.009500, 0.032100, -0.001100
2024/03/23 00:35:00, 764426100.00, 0.006400, 0.028500, 0.014700
2024/03/23 00:40:00, 764426400.00, 0.001700, 0.036500, 0.014100
2024/03/23 00:45:00, 764426700.00, 0.008500, 0.039500, 0.014700
2024/03/23 00:50:00, 764427000.00, 0.013700, 0.036200, 0.005800
2024/03/23 00:55:00, 764427300.00, 0.010700, 0.038400, 0.012900
2024/03/23 01:00:00, 764427600.00, 0.015900, 0.034000, 0.005000
2024/03/23 01:05:00, 764427900.00, 0.018400, 0.039700, 0.004400
2024/03/23 01:10:00, 764428200.00, -0.001500, 0.043700, 0.007200
2024/03/23 01:15:00, 764428500.00, 0.009000, 0.040800, 0.004300
2024/03/23 01:20:00, 764428800.00, 0.006500, 0.042300, 0.005100
2024/03/23 01:25:00, 764429100.00, 0.014500, 0.030800, 0.029000
2024/03/23 01:30:00, 764429400.00, 0.011800, 0.044000, 0.002200
2024/03/23 01:35:00, 764429700.00, 0.006800, 0.037500, 0.005900
2024/03/23 01:40:00, 764430000.00, 0.008000, 0.036200, 0.008000
2024/03/23 01:45:00, 764430300.00, 0.000000, 0.036600, 0.000100
2024/03/23 01:50:00, 764430600.00, 0.002100, 0.041700, -0.008800
2024/03/23 01:55:00, 764430900.00, -0.004500, 0.035800, -0.025400
2024/03/23 10:05:00, 764460300.00, 0.028500, 0.132700, 0.005600
2024/03/23 10:10:00, 764460600.00, 0.026600, 0.132300, 0.016000
2024/03/23 10:15:00, 764460900.00, 0.030200, 0.130600, 0.012700
2024/03/23 10:20:00, 764461200.00, 0.022900, 0.129300, 0.020500
2024/03/23 10:25:00, 764461500.00, 0.019100, 0.132400, 0.033900
2024/03/23 10:30:00, 764461800.00, 0.025300, 0.126800, 0.018800
2024/03/23 15:05:00, 764478300.00, 0.029700, 0.068100, 0.012100
2024/03/23 15:10:00, 764478600.00, 0.016700, 0.067100, 0.032100
2024/03/23 15:15:00, 764478900.00, 0.016300, 0.062900, -0.015200
2024/03/23 15:20:00, 764479200.00, 0.016800, 0.070400, 0.025300
2024/03/23 15:25:00, 764479500.00, 0.020000, 0.076400, 0.030300
2024/03/23 15:30:00, 764479800.00, 0.002400, 0.074700, 0.024300
2024/03/23 15:35:00, 764480100.00, 0.007900, 0.075300, 0.027300
2024/03/23 15:40:00, 764480400.00, 0.009200, 0.089000, 0.003000
2024/03/23 15:45:00, 764480700.00, 0.010800, 0.071700, -0.004900
2024/03/23 15:50:00, 764481000.00, 0.010600, 0.066900, -0.004200
2024/03/23 15:55:00, 764481300.00, 0.012000, 0.066800, 0.008100
2024/03/23 16:00:00, 764481600.00, 0.034000, 0.068600, 0.003600
2024/03/23 16:05:00, 764481900.00, 0.019900, 0.072700, -0.008200
2024/03/23 16:10:00, 764482200.00, 0.010200, 0.070700, 0.001100
2024/03/23 16:15:00, 764482500.00, 0.013800, 0.073000, -0.000700
2024/03/23 16:20:00, 764482800.00, 0.009200, 0.056200, -0.009300
2024/03/23 16:25:00, 764483100.00, 0.008200, 0.053200, 0.042800
2024/03/23 16:30:00, 764483400.00, 0.005800, 0.062600, 0.042500
2024/03/23 16:35:00, 764483700.00, 0.013400, 0.076800, 0.016700
2024/03/23 16:40:00, 764484000.00, 0.022300, 0.077100, -0.013900
2024/03/23 16:45:00, 764484300.00, 0.020600, 0.075400, 0.008600
2024/03/23 16:50:00, 764484600.00, 0.021300, 0.071800, 0.005900
2024/03/23 16:55:00, 764484900.00, 0.019600, 0.071500, 0.032300
2024/03/23 17:00:00, 764485200.00, 0.017500, 0.077000, -0.009200
2024/03/23 17:05:00, 764485500.00, 0.007100, 0.075200, -0.013100
2024/03/23 17:10:00, 764485800.00, 0.021900, 0.068600, -0.004100
2024/03/23 17:15:00, 764486100.00, 0.038000, 0.072900, 0.005100
2024/03/23 17:20:00, 764486400.00, 0.023800, 0.065500, 0.010000
2024/03/23 17:25:00, 764486700.00, 0.018800, 0.074200, -0.000200
2024/03/23 17:30:00, 764487000.00, 0.018700, 0.063200, 0.025200
2024/03/23 17:35:00, 764487300.00, 0.026100, 0.055200, 0.059500
2024/03/23 17:40:00, 764487600.00, 0.013500, 0.070000, 0.060700
2024/03/23 17:45:00, 764487900.00, 0.027400, 0.061100, 0.037900
2024/03/23 17:50:00, 764488200.00, 0.038300, 0.039600, 0.066000
2024/03/23 17:55:00, 764488500.00, 0.025600, 0.045500, 0.060800
2024/03/23 18:00:00, 764488800.00, 0.006600, 0.061000, 0.061500
2024/03/23 18:05:00, 764489100.00, 0.014800, 0.066100, 0.027100
2024/03/23 18:10:00, 764489400.00, 0.000900, 0.060900, 0.065000
2024/03/23 18:15:00, 764489700.00, 0.012200, 0.062000, 0.065700
2024/03/23 18:20:00, 764490000.00, -0.000500, 0.062600, 0.042800
2024/03/23 18:25:00, 764490300.00, -0.001700, 0.052100, 0.027400
2024/03/23 18:30:00, 764490600.00, 0.013600, 0.055600, 0.004100
2024/03/23 18:35:00, 764490900.00, 0.026800, 0.061800, 0.021400
2024/03/23 18:40:00, 764491200.00, 0.024600, 0.064300, 0.027800
2024/03/23 18:45:00, 764491500.00, 0.021000, 0.056400, 0.035400
2024/03/23 18:50:00, 764491800.00, 0.008100, 0.058800, 0.061400
2024/03/23 18:55:00, 764492100.00, 0.010900, 0.054000, 0.039400
2024/03/23 19:00:00, 764492400.00, 0.024100, 0.049600, 0.039200
2024/03/23 19:05:00, 764492700.00, 0.023600, 0.038500, 0.023600
2024/03/23 19:10:00, 764493000.00, 0.029200, 0.041900, 0.033000
2024/03/23 19:15:00, 764493300.00, 0.037000, 0.035500, 0.028100
2024/03/23 19:20:00, 764493600.00, 0.019000, 0.029200, 0.031800
2024/03/23 19:25:00, 764493900.00, 0.003500, 0.022800, 0.037300
2024/03/23 19:30:00, 764494200.00, 0.010200, 0.046900, 0.032500
2024/03/23 19:35:00, 764494500.00, 0.027600, 0.063800, -0.003300
2024/03/23 19:40:00, 764494800.00, 0.019500, 0.051200, -0.005800
2024/03/23 19:45:00, 764495100.00, 0.046800, 0.050200, 0.034300
2024/03/23 19:50:00, 764495400.00, 0.035200, 0.053400, 0.016000
2024/03/23 19:55:00, 764495700.00, 0.033500, 0.046300, 0.036400
2024/03/23 20:00:00, 764496000.00, 0.008100, 0.041500, 0.005100
2024/03/23 20:05:00, 764496300.00, -0.001500, 0.043500, 0.008700
2024/03/23 20:10:00, 764496600.00, -0.007400, 0.045600, 0.011400
2024/03/23 20:15:00, 764496900.00, 0.000800, 0.044100, -0.005400
2024/03/23 20:20:00, 764497200.00, -0.003500, 0.043300, -0.001500
2024/03/23 20:25:00, 764497500.00, -0.004900, 0.051600, 0.022600
2024/03/23 20:30:00, 764497800.00, 0.009600, 0.047100, 0.030200
2024/03/23 20:35:00, 764498100.00, 0.006800, 0.046400, 0.021000
2024/03/23 20:40:00, 764498400.00, 0.000200, 0.052100, -0.013100
2024/03/23 20:45:00, 764498700.00, -0.009100, 0.058100, -0.026000
2024/03/23 20:50:00, 764499000.00, -0.011200, 0.051800, -0.017300
2024/03/23 20:55:00, 764499300.00, -0.005800, 0.050600, -0.006000
2024/03/23 21:00:00, 764499600.00, -0.001300, 0.054800, -0.029900
2024/03/23 21:05:00, 764499900.00, -0.005100, 0.059700, -0.005100
2024/03/23 21:10:00, 764500200.00, -0.012500, 0.067000, -0.018300
2024/03/23 21:15:00, 764500500.00, -0.017700, 0.063300, -0.030400
2024/03/23 21:20:00, 764500800.00, -0.011500, 0.076300, -0.012700
2024/03/23 21:25:00, 764501100.00, 0.000300, 0.077900, -0.013800
2024/03/23 21:30:00, 764501400.00, 0.000300, 0.081700, -0.016700
2024/03/23 21:35:00, 764501700.00, -0.002300, 0.089200, -0.040600
2024/03/23 21:40:00, 764502000.00, -0.007700, 0.083900, -0.033600
2024/03/23 21:45:00, 764502300.00, -0.011400, 0.077000, -0.049000
2024/03/23 21:50:00, 764502600.00, -0.010800, 0.079500, -0.049200
2024/03/23 21:55:00, 764502900.00, 0.002400, 0.099700, -0.057200
2024/03/23 22:00:00, 764503200.00, 0.001900, 0.084400, -0.059700
2024/03/23 22:05:00, 764503500.00, -0.003800, 0.082400, -0.059400
2024/03/23 22:10:00, 764503800.00, -0.006200, 0.084600, -0.053900
2024/03/23 22:15:00, 764504100.00, 0.001000, 0.085400, -0.059100
2024/03/23 22:20:00, 764504400.00, -0.017500, 0.101700, -0.062800
2024/03/23 22:25:00, 764504700.00, -0.000900, 0.100000, -0.063200
2024/03/23 22:30:00, 764505000.00, -0.015800, 0.098300, 0.003100
2024/03/23 22:35:00, 764505300.00, -0.032300, 0.097100, -0.041900
2024/03/23 22:45:00, 764505900.00, -0.005700, 0.101900, -0.045100
2024/03/23 22:50:00, 764506200.00, -0.007900, 0.098400, -0.032900
2024/03/23 22:55:00, 764506500.00, -0.013000, 0.094100, -0.036400
2024/03/25 00:00:00, 764596800.00, -0.006800, -0.005200, -0.017100
2024/03/25 00:05:00, 764597100.00, -0.008900, -0.008300, -0.013200
2024/03/25 00:10:00, 764597400.00, -0.006300, -0.006500, -0.006500
2024/03/25 00:15:00, 764597700.00, -0.002400, -0.021500, 0.021300
2024/03/25 00:20:00, 764598000.00, 0.002600, -0.001500, 0.003800
2024/03/25 00:25:00, 764598300.00, -0.004300, -0.003300, -0.000200
2024/03/25 00:30:00, 764598600.00, -0.010900, -0.001000, 0.012600
2024/03/25 00:35:00, 764598900.00, -0.010100, -0.002900, -0.011900
2024/03/25 00:40:00, 764599200.00, -0.007500, -0.005600, 0.011400
2024/03/25 00:45:00, 764599500.00, 0.009000, -0.006200, -0.004700
2024/03/25 00:50:00, 764599800.00, 0.010000, -0.009800, 0.003500
2024/03/25 00:55:00, 764600100.00, -0.000600, 0.002600, 0.019300
2024/03/25 01:00:00, 764600400.00, 0.012900, -0.009500, 0.004400
2024/03/25 01:05:00, 764600700.00, 0.010700, 0.001800, 0.003600
2024/03/25 01:10:00, 764601000.00, 0.008500, -0.009300, 0.004700
2024/03/25 01:15:00, 764601300.00, 0.002900, -0.003800, -0.000600
2024/03/25 01:20:00, 764601600.00, 0.003700, -0.003900, -0.007600
2024/03/25 01:25:00, 764601900.00, 0.007900, 0.005500, 0.006100
2024/03/25 01:30:00, 764602200.00, 0.013900, 0.015400, 0.032200
2024/03/25 01:35:00, 764602500.00, 0.019600, 0.012600, 0.033500
2024/03/25 01:40:00, 764602800.00, 0.008000, 0.010800, 0.035100
2024/03/25 01:45:00, 764603100.00, 0.010600, 0.005700, 0.039100
2024/03/25 01:50:00, 764603400.00, 0.019500, -0.002700, 0.044500
2024/03/25 01:55:00, 764603700.00, 0.009500, 0.012000, 0.039500
2024/03/25 02:00:00, 764604000.00, 0.031800, 0.004500, 0.040900
2024/03/25 05:00:00, 764614800.00, -0.000800, -0.016200, -0.074200
2024/03/25 05:05:00, 764615100.00, 0.007300, -0.017600, -0.063400
2024/03/25 05:10:00, 764615400.00, 0.013300, -0.020000, -0.066100
2024/03/25 05:15:00, 764615700.00, 0.008200, -0.012800, -0.048400
2024/03/25 05:20:00, 764616000.00, -0.014600, -0.008000, -0.064800
2024/03/25 05:25:00, 764616300.00, -0.016800, 0.000400, -0.053700
2024/03/25 05:30:00, 764616600.00, -0.009800, -0.010000, -0.054500
2024/03/25 05:35:00, 764616900.00, -0.005600, 0.001500, -0.043000
2024/03/25 05:40:00, 764617200.00, -0.008900, -0.006800, -0.060000
2024/03/25 05:45:00, 764617500.00, -0.003600, 0.000300, -0.030800
2024/03/25 05:50:00, 764617800.00, -0.005800, 0.008300, -0.050100
2024/03/25 05:55:00, 764618100.00, -0.003000, -0.000600, -0.038700
2024/03/25 06:00:00, 764618400.00, 0.001500, 0.001600, -0.043600
2024/03/25 06:05:00, 764618700.00, -0.000300, 0.003500, -0.041700
2024/03/25 06:10:00, 764619000.00, -0.015000, 0.007600, -0.046100
2024/03/25 06:15:00, 764619300.00, -0.004800, 0.002100, -0.022800
2024/03/25 06:20:00, 764619600.00, 0.011700, -0.003500, -0.028000
2024/03/25 06:25:00, 764619900.00, -0.008100, -0.000700, -0.017600
2024/03/25 06:30:00, 764620200.00, 0.013000, 0.001800, -0.025000
2024/03/25 06:35:00, 764620500.00, 0.008300, -0.003900, -0.013100
2024/03/25 06:40:00, 764620800.00, 0.012600, 0.001400, -0.021600
2024/03/25 06:45:00, 764621100.00, 0.022700, 0.008700, -0.029000
2024/03/25 06:50:00, 764621400.00, 0.011600, 0.004600, -0.031900
2024/03/25 06:55:00, 764621700.00, 0.010300, 0.007600, -0.023000
2024/03/25 07:00:00, 764622000.00, 0.012100, 0.006600, -0.030900
2024/03/25 07:05:00, 764622300.00, 0.013900, 0.013900, -0.061300
2024/03/25 07:10:00, 764622600.00, 0.006400, 0.009600, 0.006300
2024/03/25 07:15:00, 764622900.00, 0.012800, 0.012700, 0.003600
2024/03/25 07:20:00, 764623200.00, 0.019200, 0.010200, -0.010000
2024/03/25 07:25:00, 764623500.00, -0.001100, 0.005100, -0.000200
2024/03/25 07:30:00, 764623800.00, 0.007800, 0.008100, 0.011100
2024/03/25 07:35:00, 764624100.00, 0.000500, 0.013500, -0.003100
2024/03/25 07:40:00, 764624400.00, 0.003600, 0.009600, -0.011000
2024/03/25 07:45:00, 764624700.00, 0.017700, 0.010600, 0.024300
2024/03/25 07:50:00, 764625000.00, 0.018600, 0.017700, 0.027100
2024/03/25 07:55:00, 764625300.00, 0.001200, 0.017900, 0.011800
2024/03/25 08:00:00, 764625600.00, 0.015000, 0.016900, 0.022200
2024/03/25 08:05:00, 764625900.00, 0.005100, 0.017200, 0.011100
2024/03/25 08:10:00, 764626200.00, 0.016000, 0.025200, 0.005100
2024/03/25 08:15:00, 764626500.00, 0.001500, 0.019800, -0.014700
2024/03/25 08:20:00, 764626800.00, 0.014300, 0.024100, 0.007100
2024/03/25 08:25:00, 764627100.00, 0.003300, 0.030900, -0.025900
2024/03/25 08:30:00, 764627400.00, 0.007900, 0.030000, 0.009000
2024/03/25 08:35:00, 764627700.00, 0.010500, 0.022600, -0.009100
2024/03/25 08:40:00, 764628000.00, 0.001100, 0.032300, -0.023900
2024/03/25 08:45:00, 764628300.00, 0.018000, 0.028700, -0.016900
2024/03/25 08:50:00, 764628600.00, 0.013200, 0.032400, -0.019400
2024/03/25 08:55:00, 764628900.00, 0.014000, 0.026200, -0.018100
2024/03/25 09:00:00, 764629200.00, 0.018800, 0.022100, 0.008300
2024/03/25 09:05:00, 764629500.00, 0.017200, 0.024500, -0.020000
2024/03/25 09:10:00, 764629800.00, 0.008700, 0.043600, -0.067600
2024/03/25 09:15:00, 764630100.00, 0.011000, 0.027200, 0.002500
2024/03/25 09:20:00, 764630400.00, 0.013100, 0.027800, -0.006600
2024/03/25 09:25:00, 764630700.00, 0.026600, 0.034300, -0.067400
2024/03/25 09:30:00, 764631000.00, 0.014100, 0.034800, -0.045600
2024/03/25 09:35:00, 764631300.00, 0.001800, 0.041700, -0.034900
2024/03/25 09:40:00, 764631600.00, 0.011500, 0.043600, -0.040300
2024/03/25 09:45:00, 764631900.00, 0.017000, 0.038300, -0.044800
2024/03/25 09:50:00, 764632200.00, 0.010100, 0.032200, -0.025100
2024/03/25 09:55:00, 764632500.00, 0.019900, 0.037000, -0.041300
2024/03/25 10:00:00, 764632800.00, 0.022000, 0.040300, -0.031200
2024/03/25 10:05:00, 764633100.00, 0.011800, 0.038200, -0.026800
2024/03/25 10:10:00, 764633400.00, 0.025200, 0.036900, -0.016700
2024/03/25 10:15:00, 764633700.00, 0.008900, 0.042600, 0.003000
2024/03/25 10:20:00, 764634000.00, 0.009600, 0.032700, -0.009600
2024/03/25 10:25:00, 764634300.00, 0.007700, 0.042600, -0.005100
2024/03/25 10:30:00, 764634600.00, 0.007900, 0.041100, -0.011600
2024/03/25 10:35:00, 764634900.00, 0.012700, 0.032300, -0.014700
2024/03/25 10:40:00, 764635200.00, 0.013400, 0.032600, -0.005200
2024/03/25 10:45:00, 764635500.00, 0.015600, 0.032700, -0.015400
2024/03/25 10:50:00, 764635800.00, 0.009800, 0.041600, -0.016800
2024/03/25 10:55:00, 764636100.00, 0.008600, 0.035600, -0.012600
2024/03/25 11:00:00, 764636400.00, 0.015300, 0.040300, -0.020000
2024/03/25 11:05:00, 764636700.00, 0.006400, 0.040300, -0.028400
2024/03/25 11:10:00, 764637000.00, 0.005700, 0.034600, 0.000000
2024/03/25 11:15:00, 764637300.00, 0.008700, 0.039200, -0.019300
2024/03/25 11:20:00, 764637600.00, 0.016700, 0.048200, -0.019500
2024/03/25 11:25:00, 764637900.00, 0.009700, 0.048700, 0.012400
2024/03/25 11:30:00, 764638200.00, 0.010300, 0.047300, 0.005500
2024/03/25 11:35:00, 764638500.00, 0.020300, 0.038000, 0.009400
2024/03/25 11:40:00, 764638800.00, 0.012300, 0.043800, -0.007400
2024/03/25 11:45:00, 764639100.00, 0.011100, 0.042900, 0.003200
2024/03/25 11:50:00, 764639400.00, 0.003200, 0.047600, 0.004400
2024/03/25 11:55:00, 764639700.00, 0.006200, 0.047500, -0.008800
2024/03/25 12:00:00, 764640000.00, 0.011100, 0.055200, -0.000400
2024/03/25 12:05:00, 764640300.00, 0.011500, 0.048300, -0.011500